Temp_Advection
nan nan nan nan nan nan nan nan nan nan nan nan nan nan nan nan nan nan nan nan nan nan nan nan nan nan nan nan nan nan nan nan nan
nan 0 0 0 -0 -0 -0 -0 -0 0 0 0 -0 -0 -0 -0 0 -0 -0 -0 -0 -0 0 -0 -0 -0 -0 0 -0 -0 0 0 nan
nan 0 0 0 0 -0 -0 -0 -0 -0 0 0 0 -0 -0 -0 -0 -0 0 -0 -0 -0 -0 0 -0 0 -0 -0 -0 0 -0 0 nan
nan -0 -0 0 0 0 0 0 -0 -0 -0 0 0 0 0 -0 -0 0 0 0 -0 -0 -0 -0 -0 0 0 0 0 0 0 0 nan
nan -0 -0 -0 -0 -0 -0 0 0 -0 -0 -0 -0 0 0 0 0 0 0 -0 -0 0 -0 -0 -0 -0 0 0 0 0 0 0 nan
nan -0 -0 -0 -0 -0 -0 -0 -0 0 -0 -0 -0 -0 0 0 0 0 0 0 -0 -0 -0 -0 -0 -0 0 0 0 0 0 0 nan
nan 0 -0 -0 -0 -0 -0 -0 -0 -0 -0 0 -0 -0 0 0 0 0 0 -0 -0 -0 -0 -0 -0 -0 0 0 0 0 0 0 nan
nan 0 0 -0 -0 -0 -0 -0 -0 -0 -0 0 -0 -0 0 -0 0 0 0 0 -0 -0 -0 -0 -0 0 0 0 0 0 -0 0 nan
nan -0 0 0 0 -0 -0 -0 -0 -0 -0 0 0 -0 -0 0 -0 0 0 -0 -0 -0 -0 -0 -0 0 0 0 0 0 0 0 nan
nan 0 0 -0 0 0 0 -0 -0 -0 -0 -0 -0 -0 -0 0 0 0 0 0 0 0 -0 -0 -0 -0 0 0 -0 -0 0 0 nan
nan -1 -0 0 0 -0 -0 0 0 -0 -0 -0 -0 -0 0 -0 -0 -0 -0 -0 0 0 0 -0 -0 0 0 0 0 -0 -0 0 nan
nan -0 -1 -1 -0 -0 0 -0 -0 -0 0 -0 -0 -0 -0 -0 0 0 -0 -0 0 0 0 0 -0 -0 0 0 -0 -0 -0 -0 nan
nan 0 -0 -0 -0 -1 -1 -0 -0 -0 -1 -0 0 0 -0 -1 -0 0 0 1 -0 -0 -0 0 -0 -0 0 -0 -0 -0 0 -0 nan
nan -0 -0 0 -0 -0 -0 -0 -0 -1 -1 -1 -1 -1 -0 0 0 0 -0 -0 -0 0 0 -1 -0 -0 -0 -0 0 0 1 0 nan
nan -0 -0 -0 -0 0 0 -0 -0 -0 -1 -1 -1 -1 -1 -0 -1 -1 -0 0 -0 0 -0 -0 -1 -0 1 0 0 0 0 -0 nan
nan -0 -0 -0 0 -0 -0 -0 -1 -0 -0 -1 -1 -1 -1 -1 -1 -1 -1 -0 0 0 -0 -0 1 0 0 0 0 0 1 -0 nan
nan -0 -0 -0 -1 -0 -0 -0 -1 -1 -0 -0 -1 -1 -1 -1 -1 -1 -1 -1 -0 0 1 0 -0 1 1 0 -0 -0 -0 -0 nan
nan 0 -0 -0 -0 -0 -0 -0 -0 -1 -1 -0 -0 -1 -1 -1 -0 -0 -1 -0 -0 0 0 0 0 0 -0 0 -0 -0 -0 -0 nan
nan -0 -0 -0 0 -0 -0 -0 -0 -0 -1 -1 -1 -0 -0 -1 -2 -2 0 -0 -0 -0 -0 -0 -0 -0 -0 -0 -0 0 0 0 nan
nan nan nan nan nan nan nan nan nan nan nan nan nan nan nan nan nan nan nan nan nan nan nan nan nan nan nan nan nan nan nan nan nan
Wind_Speed
5 5 5 4 6 7 7 6 5 4 4 3 2 6 8 8 8 3 4 5 6 2 6 5 2 1 2 3 4 7 7 9 8
6 4 3 5 7 8 8 8 6 4 3 2 1 5 10 9 5 4 4 6 8 4 3 4 4 4 2 2 3 5 6 7 7
7 7 7 9 10 10 10 9 8 7 5 4 2 4 10 9 8 6 5 7 8 6 3 1 3 2 3 2 1 1 2 3 5
10 10 11 12 13 12 12 12 11 9 8 7 6 5 9 11 10 9 10 10 11 9 7 5 4 4 3 3 2 1 1 2 3
13 13 13 14 15 15 15 14 14 13 11 10 10 9 9 12 13 13 12 12 11 11 10 9 7 7 6 5 5 4 4 3 3
14 15 14 15 17 17 16 17 17 17 16 14 13 13 12 11 13 13 12 12 14 14 14 12 11 10 9 8 7 7 6 6 5
15 16 18 18 19 21 21 21 21 21 20 18 17 17 14 14 14 14 13 12 14 14 16 17 14 13 12 10 9 9 8 8 7
18 17 18 19 20 23 23 22 23 23 23 20 20 19 16 13 15 17 15 15 17 15 16 18 16 16 14 13 12 11 11 10 9
20 22 20 21 21 23 24 25 25 24 23 20 20 18 18 14 15 16 16 20 19 19 18 19 18 17 17 16 15 14 13 12 11
21 21 22 23 23 22 23 25 25 27 26 26 24 24 22 21 21 20 19 22 23 21 20 20 21 20 18 17 16 16 15 15 14
23 25 23 24 26 25 26 27 25 27 29 29 30 29 29 27 26 24 26 24 25 25 23 21 22 22 21 19 18 17 16 15 14
22 24 25 26 26 26 29 30 29 30 28 31 31 31 32 32 30 31 31 28 27 26 26 25 22 23 24 22 22 20 19 19 17
23 24 25 26 27 27 27 27 28 32 33 34 33 34 31 33 32 32 32 31 30 29 27 27 26 24 25 25 24 23 23 22 20
22 25 27 28 29 30 29 28 28 29 31 33 35 35 35 35 33 35 34 34 36 32 31 30 27 25 25 26 27 26 24 23 24
25 24 25 27 31 33 32 32 29 28 29 28 30 33 34 35 34 36 33 34 34 35 33 35 33 30 27 27 27 27 25 23 27
20 19 22 25 26 26 26 29 26 24 24 28 31 30 31 33 33 34 35 37 31 32 37 37 34 36 31 27 29 30 27 27 27
18 18 16 16 16 17 18 22 26 27 22 23 24 31 32 28 29 29 30 31 25 29 31 34 33 36 33 31 32 34 39 33 29
9 10 14 14 16 16 17 17 18 24 24 23 22 20 16 14 11 10 18 23 25 28 30 30 29 32 32 35 37 34 30 30 28
7 9 11 14 17 19 21 20 19 19 24 26 25 28 28 26 27 31 23 12 13 11 16 12 9 9 12 16 19 22 24 28 28
7 10 13 16 19 20 20 21 22 22 24 24 25 28 25 25 26 26 33 30 28 27 23 17 15 16 16 14 14 14 15 16 18
Wind_Direction
343 297 273 274 328 339 342 352 357 359 3 26 123 156 150 143 118 151 264 281 324 296 194 208 259 21 67 70 66 66 69 73 62
334 328 268 271 310 317 322 328 332 327 325 344 188 175 170 163 162 200 250 279 307 281 220 238 238 217 210 47 63 58 53 55 46
316 307 286 286 296 303 304 307 311 313 303 290 265 211 190 189 177 192 261 279 281 290 284 279 276 253 205 183 81 35 46 45 34
308 302 292 287 288 293 295 295 296 297 294 283 271 243 215 206 198 199 214 238 256 265 267 272 264 257 239 242 238 262 332 342 6
298 293 294 291 285 287 289 288 287 286 285 282 272 261 245 228 232 228 227 238 237 254 250 263 261 254 249 245 250 250 260 274 292
298 295 294 297 297 292 289 288 287 283 279 277 276 267 258 249 239 235 236 249 247 248 255 257 256 251 249 246 248 253 255 259 270
289 289 288 284 286 290 291 291 285 280 280 278 274 272 264 258 251 235 239 258 262 256 262 254 258 249 246 247 248 252 257 261 265
279 276 279 279 280 284 288 289 288 283 279 277 275 273 258 266 258 242 241 256 267 262 264 257 256 250 249 250 250 250 254 258 261
279 278 272 273 278 281 281 281 281 279 277 272 273 276 262 264 270 248 247 253 265 267 266 259 259 251 250 252 254 254 253 256 259
280 275 275 276 272 272 273 278 281 279 274 271 266 264 265 265 262 267 258 251 258 262 266 264 259 258 255 251 255 259 260 261 263
283 284 279 271 268 273 275 275 277 274 275 273 268 265 257 259 255 254 259 259 259 259 261 264 259 257 257 257 257 258 262 264 268
276 278 281 283 279 273 270 270 274 275 274 270 269 271 265 258 255 249 250 256 259 261 261 261 261 255 253 248 255 261 261 264 268
275 275 276 277 278 281 280 276 274 272 275 275 274 270 271 266 259 256 254 249 251 256 258 261 262 261 254 251 251 250 255 258 265
281 277 276 277 278 279 278 277 277 278 277 278 278 276 274 269 267 265 259 255 256 250 252 259 260 263 261 255 250 252 254 262 266
279 280 281 282 280 278 276 276 272 278 284 284 280 279 277 275 273 268 267 262 258 260 251 251 251 262 264 261 249 247 250 260 262
287 298 301 298 292 290 287 275 274 272 276 283 280 277 276 277 280 277 270 267 260 258 259 258 254 259 263 259 253 250 260 275 262
296 306 314 322 325 324 316 290 278 274 274 289 293 290 291 285 282 278 275 268 270 263 259 259 263 263 262 262 259 261 262 275 257
294 308 331 337 326 326 324 319 302 286 280 273 285 296 278 294 292 288 286 265 263 265 261 257 253 256 258 261 262 264 262 254 264
329 337 343 340 332 326 322 314 305 298 290 284 275 270 278 286 294 275 274 282 296 290 278 274 269 272 288 279 276 268 265 262 269
12 350 343 343 334 323 321 316 305 292 289 289 289 280 275 275 275 285 282 281 285 295 290 288 279 280 281 274 280 279 280 273 268
Height
1562 1562 1562 1562 1561 1561 1560 1559 1558 1557 1557 1556 1556 1557 1557 1558 1559 1559 1559 1558 1558 1557 1556 1556 1556 1556 1555 1554 1553 1552 1552 1551 1550
1562 1561 1561 1561 1561 1561 1560 1559 1558 1557 1556 1556 1555 1556 1556 1557 1557 1558 1558 1558 1557 1556 1556 1555 1555 1555 1555 1554 1554 1553 1552 1552 1551
1561 1561 1561 1560 1560 1560 1559 1558 1557 1556 1556 1555 1555 1555 1555 1555 1556 1556 1557 1557 1557 1556 1555 1555 1554 1554 1554 1554 1553 1553 1553 1552 1551
1560 1560 1559 1559 1559 1558 1558 1557 1557 1556 1555 1555 1554 1554 1554 1554 1554 1554 1554 1555 1555 1555 1554 1554 1554 1553 1553 1553 1553 1552 1552 1552 1551
1558 1558 1557 1557 1557 1556 1556 1556 1555 1555 1554 1553 1553 1552 1552 1552 1552 1552 1552 1552 1552 1552 1552 1552 1552 1552 1552 1552 1551 1551 1551 1551 1550
1556 1556 1555 1555 1555 1554 1554 1553 1553 1553 1552 1551 1551 1550 1550 1550 1549 1549 1550 1550 1551 1550 1550 1550 1550 1550 1550 1550 1550 1549 1549 1549 1549
1554 1553 1552 1552 1552 1551 1551 1550 1550 1549 1549 1549 1548 1548 1547 1547 1547 1546 1546 1547 1547 1547 1547 1548 1548 1547 1547 1547 1547 1547 1547 1547 1547
1551 1550 1550 1549 1549 1548 1547 1547 1546 1545 1545 1545 1544 1544 1544 1544 1543 1543 1543 1543 1544 1544 1544 1544 1545 1545 1545 1545 1545 1545 1545 1545 1545
1547 1546 1546 1545 1545 1544 1543 1542 1542 1541 1541 1541 1540 1540 1540 1539 1540 1540 1540 1540 1541 1541 1541 1541 1541 1541 1542 1542 1542 1542 1542 1542 1542
1542 1541 1541 1540 1540 1539 1538 1537 1537 1536 1536 1536 1535 1535 1535 1535 1536 1536 1536 1537 1537 1537 1537 1537 1537 1537 1538 1538 1538 1539 1539 1539 1539
1536 1536 1535 1535 1535 1534 1533 1532 1531 1531 1530 1529 1530 1530 1530 1529 1530 1530 1531 1532 1532 1532 1532 1532 1532 1533 1533 1534 1534 1535 1535 1535 1535
1531 1529 1529 1528 1528 1528 1527 1526 1525 1524 1523 1523 1523 1523 1524 1524 1524 1525 1525 1524 1525 1526 1527 1528 1528 1528 1529 1530 1530 1530 1530 1531 1531
1525 1524 1523 1522 1520 1520 1520 1519 1518 1517 1517 1516 1516 1516 1516 1517 1517 1516 1517 1518 1519 1520 1521 1522 1523 1523 1524 1524 1525 1525 1525 1525 1526
1520 1518 1517 1516 1515 1514 1513 1512 1512 1511 1510 1509 1508 1508 1508 1508 1509 1508 1510 1511 1511 1512 1514 1516 1517 1518 1518 1519 1520 1521 1521 1521 1521
1513 1512 1512 1511 1509 1508 1507 1505 1505 1505 1504 1502 1501 1500 1499 1500 1500 1501 1502 1504 1504 1505 1505 1508 1508 1509 1512 1513 1513 1514 1516 1516 1517
1508 1508 1506 1505 1503 1501 1500 1499 1499 1499 1499 1497 1495 1494 1494 1493 1493 1493 1494 1495 1497 1498 1499 1499 1501 1501 1503 1507 1508 1508 1509 1510 1511
1504 1504 1503 1501 1498 1497 1496 1495 1494 1494 1495 1494 1491 1487 1486 1487 1487 1486 1487 1488 1488 1489 1491 1493 1493 1495 1497 1498 1500 1502 1503 1503 1504
1502 1501 1500 1499 1497 1495 1494 1492 1491 1489 1490 1491 1491 1486 1483 1482 1481 1480 1480 1481 1483 1484 1484 1484 1486 1489 1490 1491 1492 1492 1494 1496 1497
1499 1498 1498 1497 1495 1493 1491 1490 1489 1487 1485 1485 1485 1485 1483 1481 1478 1476 1476 1477 1478 1479 1480 1480 1482 1484 1485 1486 1486 1486 1487 1489 1490
1498 1497 1496 1494 1493 1492 1489 1487 1485 1484 1482 1481 1479 1479 1478 1478 1478 1475 1472 1473 1474 1476 1476 1477 1478 1480 1482 1481 1481 1482 1483 1484 1484